Location: Unspecified
(44.4377°N, 88.0525°W)
Time: 04:42:33
(UTC-05:00)

Okean 3 - Visible Passes

Search period start: 23 July 2014 00:00
Search period end: 02 August 2014 00:00
Orbit: 584 x 610 km, 82.5° (Epoch: 22 July)

Date Brightness Start Highest point End Pass type
(mag) Time Alt. Az. Time Alt. Az. Time Alt. Az.
23 Jul 5.3 21:05:42 10° NNW 21:09:28 32° W 21:13:11 10° SSW visible
24 Jul 6.1 21:16:36 10° NW 21:19:45 21° W 21:22:53 10° SW visible
25 Jul 6.4 21:27:55 10° NW 21:30:00 14° W 21:32:04 10° WSW visible
